Weather History for KTCM - April, 2013

Change the Weather History Date:

Monday, April 1, 2013

  Actual Average Record
Temperature  
Mean Temperature 52 °F -  
Max Temperature 63 °F 52 °F 75 °F (1987)
Min Temperature 42 °F 33 °F 26 °F (1999)
Degree Days  
Heating Degree Days 12    
Growing Degree Days 2 (Base 50)    
Moisture  
Dew Point 47 °F    
Average Humidity 88    
Maximum Humidity 100    
Minimum Humidity 57    
Precipitation  
Precipitation 0.00 in - - ()
Sea Level Pressure  
Sea Level Pressure 30.09 in    
Wind  
Wind Speed 4 mph (SW)    
Max Wind Speed 14 mph    
Max Gust Speed 18 mph    
Visibility 10 miles    
Events      
Averages and records for this station are not official NWS values.
T = Trace of Precipitation, MM = Missing Value Source: NWS Daily Summary

Daily Weather History Graph

Daily Weather History Graph

Search for Another Location

Airport or City:

Trip Planner

Search our weather history database for the weather conditions in past years. The results will help you decide how hot, cold, wet, or windy it might be!

Date:

Astronomy

Apr. 01, 2013 Rise Set
Actual Time 6:48 AM PDT 7:39 PM PDT
Civil Twilight 6:17 AM PDT 8:10 PM PDT
Nautical Twilight 5:40 AM PDT 8:47 PM PDT
Astronomical Twilight 5:01 AM PDT 9:26 PM PDT
Moon 1:10 AM PDT (4/1) 10:23 AM PDT (4/1)
Length of Visible Light 13h 53m
Length of Day
12h 51m
Waning Gibbous, 66% of the Moon is Illuminated
Apr 1
Waning Gibbous
Apr 2
Last Quarter
Apr 10
New
Apr 18
First Quarter
Apr 25
Full

Hourly Weather History & Observations

Time (PDT) Temp. Dew Point Humidity Pressure Visibility Wind Dir Wind Speed Gust Speed Precip Events Conditions
12:58 AM 49.5 °F 46.8 °F 90% 30.02 in 10.0 mi West 4.6 mph - N/A   Clear
1:58 AM 47.8 °F 46.9 °F 97% 30.04 in 10.0 mi Calm Calm - N/A   Clear
2:21 AM 44.6 °F 44.6 °F 100% 30.03 in 10.0 mi Calm Calm - N/A   Partly Cloudy
2:36 AM 44.6 °F 42.8 °F 93% 30.03 in 2.5 mi Calm Calm - N/A   Mostly Cloudy
2:41 AM 42.8 °F 42.8 °F 100% 30.03 in 4.0 mi Calm Calm - N/A   Mostly Cloudy
2:51 AM 44.6 °F 44.6 °F 100% 30.03 in 10.0 mi WNW 2.3 mph - N/A   Overcast
2:58 AM 45.7 °F 45.5 °F 99% 30.04 in 10.0 mi Calm Calm - N/A   Overcast
3:33 AM 48.2 °F 48.2 °F 100% 30.03 in 10.0 mi Calm Calm - N/A   Overcast
3:38 AM 48.2 °F 48.2 °F 100% 30.03 in 10.0 mi South 1.2 mph - N/A   Overcast
3:58 AM 48.7 °F 48.4 °F 99% 30.04 in 10.0 mi Calm Calm - N/A   Overcast
4:58 AM 47.7 °F 47.5 °F 99% 30.04 in 10.0 mi SW 3.5 mph - N/A   Overcast
5:21 AM 48.2 °F 48.2 °F 100% 30.03 in 10.0 mi SW 4.6 mph - N/A   Overcast
5:36 AM 48.2 °F 48.2 °F 100% 30.03 in 10.0 mi WSW 5.8 mph - N/A   Overcast
5:58 AM 48.2 °F 47.7 °F 98% 30.05 in 10.0 mi SW 3.5 mph - N/A   Overcast
6:23 AM 48.2 °F 48.2 °F 100% 30.05 in 10.0 mi SSW 5.8 mph - N/A   Overcast
6:58 AM 47.1 °F 46.8 °F 99% 30.06 in 9.0 mi SW 5.8 mph - N/A   Overcast
7:58 AM 47.5 °F 47.3 °F 99% 30.09 in 10.0 mi South 3.5 mph - N/A   Overcast
8:08 AM 48.2 °F 48.2 °F 100% 30.07 in 10.0 mi South 3.5 mph - N/A   Overcast
8:28 AM 48.2 °F 48.2 °F 100% 30.08 in 10.0 mi South 4.6 mph - N/A   Overcast
8:58 AM 48.9 °F 48.4 °F 98% 30.09 in 10.0 mi South 4.6 mph - N/A   Overcast
9:28 AM 50.0 °F 48.2 °F 94% 30.09 in 10.0 mi SW 4.6 mph - N/A   Overcast
9:48 AM 50.0 °F 48.2 °F 94% 30.09 in 10.0 mi Variable 5.8 mph - N/A   Overcast
9:58 AM 50.5 °F 47.8 °F 90% 30.11 in 10.0 mi SSW 5.8 mph - N/A   Overcast
10:18 AM 51.8 °F 48.2 °F 88% 30.10 in 10.0 mi SW 3.5 mph - N/A   Overcast
10:58 AM 51.6 °F 47.7 °F 86% 30.12 in 10.0 mi SW 10.4 mph - N/A   Overcast
11:58 AM 54.1 °F 48.4 °F 81% 30.12 in 10.0 mi SW 8.1 mph - N/A   Overcast
12:58 PM 57.0 °F 48.9 °F 74% 30.12 in 10.0 mi SW 11.5 mph - N/A   Overcast
1:18 PM 57.2 °F 48.2 °F 72% 30.11 in 10.0 mi South 8.1 mph 18.4 mph N/A   Overcast
1:58 PM 60.3 °F 48.9 °F 66% 30.12 in 10.0 mi West 10.4 mph - N/A   Overcast
2:28 PM 60.8 °F 48.2 °F 63% 30.10 in 10.0 mi West 13.8 mph - N/A   Scattered Clouds
2:58 PM 61.3 °F 47.7 °F 61% 30.12 in 10.0 mi SW 10.4 mph - N/A   Partly Cloudy
3:58 PM 63.5 °F 48.0 °F 57% 30.10 in 10.0 mi West 8.1 mph - N/A   Clear
4:58 PM 62.8 °F 49.1 °F 61% 30.10 in 10.0 mi WNW 5.8 mph - N/A   Clear
5:58 PM 62.1 °F 48.2 °F 60% 30.12 in 10.0 mi WNW 11.5 mph - N/A   Clear
6:58 PM 59.0 °F 47.1 °F 65% 30.12 in 10.0 mi West 11.5 mph - N/A   Clear
7:58 PM 53.8 °F 46.8 °F 77% 30.14 in 10.0 mi West 9.2 mph - N/A   Clear
8:58 PM 51.1 °F 46.2 °F 83% 30.16 in 10.0 mi West 8.1 mph - N/A   Clear
9:58 PM 50.0 °F 46.4 °F 87% 30.18 in 10.0 mi WSW 5.8 mph - N/A   Mostly Cloudy
10:38 PM 50.0 °F 46.4 °F 87% 30.17 in 10.0 mi WSW 5.8 mph - N/A   Overcast
10:58 PM 50.0 °F 47.3 °F 90% 30.19 in 10.0 mi WSW 6.9 mph - N/A   Overcast
11:58 PM 49.8 °F 47.3 °F 91% 30.19 in 10.0 mi South 2.3 mph - N/A   Overcast